Regional Weather Roundup
Issued by NWS

Home | Current Version | Previous Version | Text Only | Print | Product List | Glossary On
Versions: 1 2 3 4 5 6 7 8 9 10 11 12 13 14 15 16 17 18 19 20 21 22 23 24 25 26 27 28 29 30 31 32 33 34 35 36 37 38 39 40 41 42 43 44 45 46 47 48 49 50
000
ASUS43 KOAX 011610
RWRNE

WEATHER ROUNDUP FOR NEBRASKA
NATIONAL WEATHER SERVICE OMAHA NE
1000 AM CST SUN FEB 01 2015

NOTES: SATELLITE DATA IS BEING USED TO AUGMENT CLOUD COVER ABOVE
       12000 FEET.
       "FAIR" INDICATES FEW OR NO CLOUDS BELOW 12,000 FEET WITH NO
       SIGNIFICANT WEATHER AND/OR OBSTRUCTIONS TO VISIBILITY.

  * THESE STATIONS DO NOT REPORT WEATHER SUCH AS RAIN...SNOW OR FOG.

NEZ001>004-019>022-054>056-011700-
NEBRASKA PANHANDLE

CITY           SKY/WX    TMP DP  RH WIND       PRES   REMARKS
SCOTTSBLUFF    CLOUDY    16   8  71 NW23G31   30.25R WCI  -2
ALLIANCE       CLOUDY     6   0  76 N21       30.24R HAZE    WCI -14
CHADRON        LGT SNOW   6   1  80 NE12      30.35R WCI  -9
KIMBALL        CLOUDY    18  11  75 N22G29    30.14R WCI   1
SIDNEY         CLOUDY    11   5  77 N18       30.19R WCI  -7
$$

NEZ057>060-069>072-079>082-011700-
SOUTHWEST NEBRASKA

CITY           SKY/WX    TMP DP  RH WIND       PRES   REMARKS
NORTH PLATTE   CLOUDY     6  -2  69 N21G29    30.24R WCI -14
IMPERIAL       PTSUNNY   13   4  67 N32G41    30.23R BLWGSNOWWCI  -9
LEXINGTON      CLOUDY    10   4  77 N25G35    30.21R HAZE    WCI -12
MCCOOK         SUNNY     13   4  67 NW25G41   30.21R HAZE    WCI  -7
OGALLALA       MOSUNNY   10   4  74 N21G31    30.24R WCI  -9
$$

NEZ005>010-023>029-035>040-094-011700-
NORTH CENTRAL NEBRASKA

CITY           SKY/WX    TMP DP  RH WIND       PRES   REMARKS
VALENTINE      LGT SNOW   0  -6  76 N21G30    30.32R VSB 1   WCI -22
AINSWORTH      LGT SNOW   1  -4  79 NW24G35   30.28R WCI -23
BROKEN BOW     SNOW       6   1  80 N32G40    30.19R VSB 1/2 WCI -18
O`NEILL        LGT SNOW   4  -1  82 N25G31    30.25R WCI -19
ORD            SNOW       5  -1  76 N26G36    30.20R VSB 1/2 WCI -18
THEDFORD       LGT SNOW   5   0  80 NW20G32   30.25R WCI -15
$$

NEZ041-046>049-061>064-073>077-083>087-011700-
SOUTH CENTRAL NEBRASKA

CITY           SKY/WX    TMP DP  RH WIND       PRES   REMARKS
GRAND ISLAND   SNOW       7   3  84 N26G38    30.15R VSB 1/4 WCI -15
AURORA         SNOW       8   5  86 N25G40    30.12R VSB 1/4 WCI -13
HASTINGS       FOG        9   5  84 N33G39    30.12R VSB 1/4 WCI -15
HEBRON         LGT SNOW  12   7  81 N16G25    30.09R VSB 3/4 WCI  -5
HOLDREGE       LGT SNOW  10   6  82 N28       30.15R WCI -11
KEARNEY *      CLOUDY     9   3  78 N30       30.16R VSB 3/4 WCI -14
YORK           SNOW       9   5  85 N21G31    30.10R VSB 1/2 WCI -11
$$

NEZ011>018-030>034-042>045-011700-
NORTHEAST NEBRASKA

CITY           SKY/WX    TMP DP  RH WIND       PRES   REMARKS
NORFOLK        LGT SNOW   6   2  83 N26G40    30.14R VSB 3/4 WCI -16
ALBION         SNOW       6   0  76 N23G35    30.16R VSB 1/2 WCI -16
BLAIR          SNOW      19  16  85 N29G38    29.98R VSB 1/2 WCI   1
FREMONT        LGT SNOW  18  15  88 NW23G31   30.06R VSB 3/4 WCI   0
TEKAMAH        HVY SNOW  19  15  84 N30G45    30.06R VSB 1/4 WCI   0
WAYNE          LGT SNOW  10   6  82 N29G35    30.14R VSB 3/4 WCI -12
$$

NEZ050>053-065>068-078-088>093-011700-
SOUTHEAST NEBRASKA

CITY           SKY/WX    TMP DP  RH WIND       PRES   REMARKS
LINCOLN        SNOW      16  12  84 N31G39    30.04R VSB 1/2 WCI  -4
OMAHA EPPLEY   SNOW      20  17  88 N31G37    29.97R VSB 1/2 WCI   1
BEATRICE       SNOW      18  15  88 NW22      30.00R VSB 1/2 WCI   0
FALLS CITY     HVY SNOW  26  23  88 NW20G28   29.87R VSB 1/4 WCI  12
NEBRASKA CITY  LGT SNOW  23  21  93 N23G32    29.92R VSB 3/4 WCI   7
PLATTSMOUTH    LGT SNOW  21  18  88 NW17G26   29.94R WCI   7
$$

NEZ044-045-051>053-067-011700-
OMAHA AREA

CITY           SKY/WX    TMP DP  RH WIND       PRES   REMARKS
OMAHA EPPLEY   SNOW      20  17  88 N31G37    29.97R VSB 1/2 WCI   1
BLAIR          SNOW      19  16  85 N29G38    29.98R VSB 1/2 WCI   1
FREMONT        LGT SNOW  18  15  88 NW23G31   30.06R VSB 3/4 WCI   0
MILLARD        LGT SNOW  20  16  83 NW8       30.00R WCI  11
PLATTSMOUTH    LGT SNOW  21  18  88 NW17G26   29.94R WCI   7
WAHOO          SNOW      15  11  83 MISG      30.04R VSB 1/2
$$


USA.gov is the U.S. government's official web portal to all federal, state and local government web resources and services.